Tracking 18851 objects as of 25-Nov-2017
HD Live streaming from Space Station
objects crossing your sky now

COSMOS 88

Track COSMOS 88 now!
10-day predictions
COSMOS 88 is classified as:


NORAD ID: 1586
Int'l Code: 1965-073C
Perigee: 1,353.0 km
Apogee: 1,646.5 km
Inclination: 56.1 °
Period: 115.8 minutes
Semi major axis: 7870 km
RCS: 0.335 m2 (medium)
Launch date: September 18, 1965
Source: Commonwealth of Independent States (former USSR) (CIS)
Launch site: TYURATAM MISSILE AND SPACE COMPLEX (TTMTR)
aabbcc
Your satellite tracking list
Your tracking list is empty




NASA's NSSDC Master Catalog

Two Line Element Set (TLE):
1 01586U 65073C   17328.75510583 -.00000084  00000-0  63603-4 0  9991
2 01586  56.0617  79.7075 0186447 325.3588 187.9380 12.43310119370164
Source of the keplerian elements: AFSPC